Wind_Speed
6 6 5 5 5 5 4 4 4 4 4 5 5 5 6 7 7 8 9 10 11 12 12 13 14 14 14 14 14 13 13 12 12 11 10 9 7 5 4 6 8 10 11
6 5 5 5 5 4 4 4 4 4 4 5 5 5 6 7 8 9 10 11 12 12 12 13 14 15 15 15 14 14 13 13 12 11 11 10 8 6 4 5 7 9 10
6 5 5 5 5 5 4 4 4 4 4 4 4 5 6 7 7 9 10 11 12 12 13 13 14 15 15 15 15 15 14 14 13 12 11 11 9 7 5 4 6 8 10
6 6 5 5 5 5 5 4 4 4 4 4 4 4 5 6 7 8 10 10 11 12 13 13 14 15 16 16 16 16 15 15 14 13 12 11 10 9 7 6 5 7 10
5 5 5 5 5 5 5 4 4 3 4 4 4 4 5 6 7 8 9 10 11 13 13 13 14 15 16 16 17 17 16 15 15 14 13 12 11 10 8 7 6 7 9
6 5 5 5 5 5 5 4 4 4 4 4 4 4 5 6 7 8 9 11 11 12 13 13 14 15 16 16 17 17 16 16 16 15 13 12 12 11 10 8 7 7 8
6 6 5 5 5 5 5 5 4 4 3 3 4 4 5 6 8 9 10 11 12 13 14 14 14 15 15 16 17 17 17 16 16 16 15 14 13 12 11 10 9 8 9
6 6 6 6 5 5 5 5 4 4 4 4 4 5 5 6 8 9 10 11 12 13 14 14 15 15 16 16 17 18 18 17 17 17 16 15 15 14 13 11 11 10 11
6 6 6 5 5 5 5 5 5 4 4 4 5 5 6 7 8 9 10 12 13 14 14 15 16 16 17 17 17 18 18 18 18 18 18 17 17 16 14 13 13 12 13
6 6 5 5 5 5 5 5 5 5 5 5 5 6 7 8 9 10 12 13 14 15 15 16 17 17 18 18 19 19 20 20 20 20 19 19 18 18 16 16 15 15 14
6 6 6 6 6 5 5 5 5 5 5 6 7 8 9 10 11 13 13 14 15 16 17 18 18 19 19 20 21 22 22 22 22 22 21 21 20 19 19 19 18 18 17
7 7 7 6 7 6 6 6 6 6 6 7 8 9 10 12 13 14 15 16 17 18 19 19 20 21 22 23 23 24 24 24 24 24 24 24 23 22 22 21 21 21 21
8 8 7 7 7 7 7 7 7 7 7 9 10 11 12 13 14 15 17 18 19 20 21 21 22 23 24 25 25 25 26 26 26 26 25 25 25 24 24 24 24 24 24
9 8 8 8 8 8 7 8 8 8 9 10 11 12 14 15 16 17 18 19 20 21 23 23 24 25 26 27 27 28 28 28 28 28 28 27 27 27 27 27 27 27 26
9 9 8 9 9 9 9 9 10 11 11 12 13 14 15 17 17 19 20 21 22 24 24 25 26 27 28 28 29 30 30 30 30 30 30 31 30 30 30 30 29 29 29
10 9 10 10 10 10 10 10 11 13 13 14 15 16 17 18 20 21 23 23 24 25 26 27 28 29 30 30 31 31 32 32 32 33 33 34 34 33 33 32 32 32 32
10 10 11 11 11 11 11 12 13 14 15 15 17 18 19 20 22 23 24 26 26 27 28 29 31 32 32 32 33 33 34 35 35 36 36 36 36 35 34 34 33 33 34
11 11 12 12 13 13 14 14 15 16 17 18 19 20 21 23 24 26 27 28 28 29 30 32 33 34 35 35 36 36 37 37 37 37 38 37 37 36 36 35 35 35 34
13 13 13 14 15 15 16 17 17 18 19 20 21 22 24 25 27 28 29 30 31 32 33 34 35 36 37 38 38 39 39 39 39 39 39 39 38 38 38 37 37 36 36
15 15 16 16 17 18 19 20 20 21 22 22 23 25 27 28 29 30 31 32 33 34 35 36 37 39 39 40 40 40 40 40 40 41 41 41 41 41 40 39 39 38 38
16 17 18 19 20 21 21 22 23 23 24 25 26 28 29 30 32 33 33 35 35 36 37 38 40 41 41 42 42 41 42 42 42 42 42 43 43 43 41 41 40 40 40
19 19 20 21 22 23 24 25 25 26 26 28 29 31 32 33 34 35 36 37 38 38 40 41 42 42 43 43 43 43 44 44 44 45 45 45 45 44 43 42 42 42 42
21 22 22 23 24 25 26 27 28 29 29 31 32 34 34 35 36 37 38 39 40 41 42 43 43 44 44 44 45 45 45 45 46 46 47 47 46 45 44 44 44 43 43
24 24 25 25 26 27 28 29 30 31 32 34 35 35 36 37 38 39 40 41 42 43 44 44 45 45 45 46 46 47 47 47 47 48 49 49 47 46 45 45 43 43 43
27 27 27 28 29 29 31 32 33 34 35 35 36 37 38 39 40 40 41 43 44 44 45 46 46 47 47 48 49 49 50 50 50 50 50 49 48 47 46 45 44 43 44
29 30 30 31 31 32 32 34 35 36 37 37 38 39 39 40 41 42 43 45 45 46 47 47 48 49 50 50 51 52 52 52 52 52 51 50 50 49 48 47 46 46 45
Wind_Direction
236 238 244 253 264 272 277 287 302 310 312 315 321 326 331 337 341 344 344 347 351 353 355 357 356 356 356 357 358 358 357 356 354 353 352 351 345 325 278 251 238 231 228
236 243 250 255 262 269 276 286 297 303 302 305 316 326 333 341 345 347 348 349 351 353 356 359 359 359 359 359 360 359 358 356 353 352 351 350 347 338 306 267 246 235 230
232 245 252 253 258 266 274 283 292 299 299 300 310 324 331 336 340 345 349 352 353 355 357 358 359 0 0 0 359 357 356 354 351 348 347 347 347 341 325 290 260 242 234
231 240 249 256 264 269 275 281 290 295 295 298 305 319 329 334 340 346 351 352 354 355 357 359 359 0 1 1 360 358 356 354 352 348 344 342 340 339 329 304 274 251 239
228 235 246 256 263 268 271 276 282 288 293 298 307 317 326 333 340 347 350 349 349 352 355 356 357 358 359 359 358 357 355 353 352 350 346 342 340 336 328 313 292 267 246
229 238 247 256 258 263 265 270 278 285 290 297 310 317 325 334 339 344 347 349 346 348 350 351 351 352 352 353 354 354 353 351 350 349 345 341 339 333 324 312 300 280 259
237 247 251 255 254 255 261 267 276 287 293 299 307 312 322 333 338 340 342 344 342 341 343 346 346 346 347 349 350 350 349 347 346 345 343 339 337 333 325 312 300 287 270
243 252 253 254 256 256 259 265 275 285 294 298 306 314 321 329 333 335 337 339 339 339 338 340 341 341 343 344 345 345 344 343 343 341 338 335 331 329 323 313 303 292 281
249 251 251 253 254 254 258 263 268 276 284 293 299 307 318 323 326 329 332 334 335 335 334 335 335 335 336 338 338 338 338 337 336 335 333 330 326 323 318 311 303 295 287
253 250 249 250 248 250 257 264 270 271 280 291 299 309 313 315 320 325 326 326 328 330 330 331 331 331 332 333 333 333 332 331 329 328 327 324 322 319 314 307 301 295 288
258 257 254 249 248 251 259 267 267 270 282 294 301 304 309 312 314 318 320 321 323 324 325 326 328 330 330 329 329 329 328 327 325 323 321 319 316 313 310 305 300 295 290
261 260 256 252 250 253 263 264 268 276 283 292 298 302 306 310 312 314 317 319 319 320 320 321 323 325 326 326 327 326 326 324 323 320 317 315 312 309 307 303 297 293 289
261 258 258 256 254 256 262 265 270 277 284 292 297 301 305 307 310 312 314 316 317 317 317 318 319 320 321 323 323 324 323 322 321 319 316 312 309 306 303 300 296 292 288
262 258 258 254 254 257 264 269 272 281 287 290 294 299 303 305 308 310 313 314 314 314 315 316 317 317 318 318 319 319 319 319 318 316 313 310 308 304 301 297 294 291 287
260 258 259 258 258 264 268 269 273 281 288 293 297 299 302 304 307 311 311 310 311 312 313 314 314 315 315 315 315 316 316 315 314 313 312 310 307 304 301 297 292 289 286
260 261 262 264 263 267 271 274 278 284 289 292 296 299 302 304 306 307 309 310 310 311 311 313 313 314 314 314 314 314 313 313 312 312 311 310 307 304 300 295 292 288 284
261 264 265 266 266 269 275 279 282 288 291 294 298 300 301 303 305 306 307 309 309 309 311 312 313 314 313 313 313 313 312 312 311 310 310 309 307 304 299 295 291 289 285
263 266 267 268 270 273 277 280 283 287 290 294 297 299 300 302 304 305 306 307 307 307 309 310 311 312 312 312 311 311 311 311 311 310 309 308 307 304 300 295 292 289 285
265 268 270 271 273 274 277 280 282 285 289 292 295 298 300 302 303 304 305 305 306 307 308 309 310 310 311 311 310 310 310 310 310 309 309 307 306 304 299 296 293 290 286
269 271 273 275 277 277 278 280 283 285 287 290 293 296 299 300 301 302 303 304 305 306 307 308 309 309 310 310 310 309 309 309 309 309 309 307 305 302 299 296 293 291 288
272 274 276 278 279 279 280 282 283 285 287 289 293 295 298 299 300 301 301 303 305 306 307 308 309 309 309 309 309 309 309 309 309 309 309 308 306 303 298 296 294 291 289
274 277 279 279 280 281 281 282 284 286 288 290 292 294 296 298 299 300 301 303 304 305 306 307 308 308 308 308 308 307 308 308 308 308 308 307 306 302 298 296 293 291 289
276 278 280 281 281 282 282 282 284 287 288 289 291 293 295 297 298 299 301 303 304 305 306 306 307 307 307 307 307 307 307 307 307 306 307 306 305 302 298 296 293 291 289
276 279 281 284 284 284 284 284 286 287 288 290 291 292 294 295 297 299 301 302 304 304 305 306 306 307 307 307 307 307 307 306 305 306 306 305 303 300 298 296 293 291 289
278 280 282 283 285 287 286 285 286 288 289 291 291 292 293 295 297 298 300 302 304 305 305 305 306 306 307 306 307 307 307 306 306 305 305 304 302 299 297 295 293 291 288
278 280 282 283 284 286 287 287 286 287 289 290 291 293 294 295 296 298 300 302 303 304 304 305 305 306 306 307 307 307 307 306 306 305 305 303 302 299 296 293 291 290 287
Height
5869 5869 5869 5870 5870 5870 5870 5870 5869 5869 5869 5868 5868 5867 5867 5866 5865 5863 5861 5860 5858 5857 5854 5852 5850 5848 5845 5843 5840 5838 5836 5834 5833 5831 5830 5829 5827 5827 5827 5828 5829 5831 5833
5867 5868 5868 5868 5869 5869 5869 5868 5868 5868 5867 5867 5867 5866 5866 5865 5864 5862 5861 5859 5858 5856 5854 5852 5850 5847 5845 5842 5840 5838 5836 5834 5832 5831 5829 5828 5828 5826 5826 5827 5827 5829 5831
5866 5867 5867 5867 5867 5867 5867 5867 5866 5866 5866 5865 5865 5865 5865 5864 5863 5862 5860 5859 5857 5855 5853 5851 5849 5847 5845 5842 5840 5838 5836 5834 5832 5830 5829 5828 5827 5826 5826 5826 5826 5827 5829
5865 5865 5866 5866 5866 5865 5865 5865 5865 5864 5864 5864 5864 5864 5864 5863 5862 5861 5859 5858 5857 5855 5853 5851 5849 5847 5845 5842 5840 5838 5835 5833 5831 5830 5828 5827 5826 5825 5825 5825 5825 5826 5827
5863 5864 5864 5864 5864 5864 5863 5863 5863 5863 5862 5862 5862 5863 5863 5862 5861 5860 5859 5858 5856 5855 5853 5851 5849 5847 5845 5842 5840 5837 5835 5833 5831 5829 5828 5826 5825 5824 5824 5824 5824 5824 5825
5862 5862 5862 5862 5862 5862 5862 5861 5861 5861 5861 5861 5861 5861 5862 5861 5860 5859 5858 5857 5856 5854 5853 5851 5849 5847 5844 5842 5839 5837 5835 5832 5830 5828 5827 5825 5824 5823 5823 5822 5822 5823 5823
5860 5860 5860 5860 5860 5860 5860 5860 5860 5860 5860 5860 5860 5860 5860 5860 5859 5858 5858 5856 5855 5853 5852 5850 5848 5846 5844 5841 5839 5836 5834 5832 5829 5827 5826 5824 5823 5822 5821 5821 5821 5821 5821
5859 5859 5858 5858 5858 5858 5858 5859 5859 5859 5858 5858 5858 5859 5859 5859 5858 5857 5856 5855 5854 5852 5851 5849 5847 5845 5843 5840 5838 5835 5833 5830 5828 5826 5824 5823 5821 5820 5819 5819 5819 5819 5819
5857 5857 5857 5856 5856 5856 5856 5857 5857 5857 5857 5857 5857 5857 5857 5857 5857 5856 5855 5854 5852 5851 5849 5847 5845 5843 5841 5839 5836 5834 5831 5829 5827 5825 5823 5821 5819 5818 5817 5816 5816 5816 5816
5855 5855 5855 5854 5854 5855 5855 5855 5855 5855 5856 5856 5856 5856 5856 5856 5855 5854 5853 5852 5851 5849 5847 5845 5843 5841 5839 5836 5834 5832 5829 5827 5824 5822 5820 5818 5817 5815 5814 5813 5813 5812 5813
5853 5853 5852 5852 5852 5853 5853 5853 5853 5854 5854 5854 5854 5854 5854 5854 5853 5852 5851 5850 5848 5846 5845 5843 5841 5838 5836 5834 5831 5829 5826 5823 5821 5819 5817 5815 5813 5812 5810 5809 5808 5808 5808
5851 5851 5850 5850 5850 5851 5851 5851 5852 5852 5852 5852 5853 5853 5852 5851 5850 5849 5848 5847 5845 5844 5841 5839 5837 5835 5832 5830 5827 5825 5822 5819 5817 5814 5812 5810 5808 5807 5805 5804 5803 5803 5802
5849 5849 5848 5848 5848 5848 5849 5849 5850 5850 5850 5850 5850 5850 5849 5848 5847 5846 5845 5844 5842 5840 5838 5836 5833 5831 5828 5825 5823 5820 5817 5814 5811 5808 5806 5804 5802 5800 5799 5798 5797 5796 5795
5847 5846 5846 5846 5846 5846 5847 5847 5847 5847 5847 5847 5847 5847 5846 5845 5844 5843 5841 5840 5838 5836 5833 5831 5828 5826 5823 5820 5817 5814 5811 5808 5805 5802 5799 5796 5794 5793 5791 5790 5789 5788 5788
5844 5844 5844 5844 5844 5844 5845 5845 5845 5845 5844 5844 5844 5843 5842 5841 5840 5838 5837 5835 5833 5830 5828 5826 5823 5820 5817 5814 5811 5807 5804 5801 5797 5794 5791 5788 5786 5784 5782 5780 5779 5779 5778
5842 5842 5842 5842 5842 5842 5842 5842 5842 5841 5841 5841 5840 5839 5838 5837 5836 5834 5832 5830 5827 5825 5822 5819 5816 5813 5810 5807 5803 5800 5796 5793 5789 5786 5783 5779 5776 5773 5771 5769 5768 5767 5767
5840 5839 5839 5839 5839 5839 5839 5839 5839 5838 5837 5837 5836 5835 5834 5832 5830 5828 5826 5824 5821 5819 5816 5813 5810 5806 5802 5799 5795 5791 5788 5784 5780 5776 5773 5769 5765 5762 5760 5758 5756 5755 5754
5837 5837 5836 5836 5836 5836 5836 5835 5835 5834 5833 5832 5831 5830 5829 5827 5825 5823 5820 5818 5815 5812 5809 5806 5802 5798 5794 5790 5786 5782 5778 5774 5770 5766 5761 5758 5754 5750 5747 5745 5744 5742 5741
5833 5833 5833 5832 5832 5832 5831 5831 5830 5829 5829 5827 5826 5825 5823 5821 5819 5816 5814 5811 5808 5805 5801 5798 5794 5790 5785 5781 5777 5772 5768 5764 5760 5755 5751 5746 5742 5738 5735 5733 5731 5729 5728
5829 5829 5829 5828 5828 5827 5827 5826 5825 5824 5823 5822 5820 5818 5816 5814 5812 5809 5806 5803 5800 5797 5793 5789 5785 5780 5776 5771 5767 5762 5758 5754 5750 5745 5740 5735 5730 5726 5722 5719 5717 5715 5713
5825 5824 5824 5823 5823 5822 5821 5820 5819 5818 5817 5815 5813 5811 5809 5807 5804 5801 5798 5795 5791 5788 5784 5780 5776 5771 5766 5761 5756 5751 5746 5742 5738 5733 5728 5723 5718 5713 5709 5705 5703 5700 5698
5820 5819 5818 5818 5816 5816 5815 5814 5813 5812 5810 5808 5806 5804 5801 5799 5796 5792 5789 5786 5782 5778 5774 5770 5766 5760 5755 5750 5745 5740 5735 5730 5726 5721 5716 5711 5705 5700 5696 5692 5689 5686 5684
5814 5813 5812 5811 5810 5809 5808 5807 5805 5804 5802 5800 5798 5795 5793 5790 5787 5783 5780 5776 5772 5768 5764 5759 5755 5750 5745 5739 5734 5729 5723 5718 5713 5708 5703 5698 5692 5687 5683 5678 5675 5672 5669
5808 5807 5806 5805 5803 5801 5800 5799 5797 5795 5793 5791 5789 5786 5783 5780 5777 5773 5770 5766 5761 5757 5753 5748 5743 5738 5733 5728 5722 5717 5711 5706 5701 5695 5690 5684 5678 5673 5669 5664 5661 5658 5655
5801 5800 5798 5797 5795 5793 5792 5790 5788 5786 5784 5782 5779 5776 5773 5770 5767 5763 5759 5755 5750 5745 5740 5736 5731 5726 5721 5716 5710 5704 5698 5693 5687 5681 5676 5670 5665 5659 5655 5650 5647 5644 5641
5792 5791 5790 5789 5787 5785 5783 5781 5779 5777 5774 5772 5769 5766 5763 5760 5756 5752 5749 5743 5739 5734 5728 5723 5718 5713 5708 5702 5697 5691 5685 5678 5672 5666 5661 5655 5650 5644 5640 5636 5633 5629 5626